Theta_e
330 322 332 339 342 342 342 342 342 342 341 341 341 341 340 340 338 338 337 337 336 336 336 335 335 335 336 335 334 334 334 332 333 331 331 331 330 330 330 330 328 327 329 330 330 329 330 331 333 332 330 331 331 331 331 331 331 332 333 332 332 333 333 335 337 335 335 334 336 336 336 336 336 335 335 335 336 336 335 333 334 333 334 334 336
328 325 332 339 342 342 342 341 342 341 341 341 341 339 339 339 338 337 336 336 336 336 335 335 336 336 335 335 333 335 334 333 332 331 332 331 329 331 330 330 329 328 329 330 329 327 330 331 333 331 330 330 331 331 331 331 332 332 333 332 332 332 333 336 336 334 334 334 333 334 334 334 334 335 335 334 335 336 335 334 334 334 334 336 336
332 325 330 338 342 341 341 341 341 341 341 341 340 339 339 338 337 336 336 336 336 335 335 334 335 336 335 336 335 334 334 334 332 332 332 331 330 330 331 329 329 329 330 329 328 329 330 333 329 329 329 330 330 331 331 332 333 332 332 332 332 332 335 335 334 333 333 332 332 333 332 331 332 332 333 334 335 336 334 334 334 334 333 336 337
330 324 329 338 341 341 341 341 341 341 341 340 339 338 338 337 337 336 336 335 335 335 335 334 335 335 335 335 334 334 334 333 332 332 331 332 329 332 330 330 328 330 330 329 326 329 329 331 328 329 329 329 330 330 331 333 332 332 331 332 333 333 335 334 334 333 333 332 332 332 330 332 331 331 332 334 335 335 334 334 333 334 335 337 339
330 326 329 337 342 341 341 340 341 341 340 340 339 338 338 337 337 336 336 335 335 335 334 334 335 335 335 335 334 333 333 333 332 332 331 331 329 332 332 331 330 330 330 329 328 330 329 328 329 329 329 330 330 330 331 331 332 331 331 332 333 334 334 335 333 333 333 332 331 330 331 331 332 331 332 334 335 334 333 333 333 334 336 337 340
329 329 329 335 341 341 340 340 340 341 341 340 339 338 338 337 336 336 336 335 335 335 335 334 335 335 335 334 334 334 333 333 332 332 330 332 328 332 330 331 329 330 330 329 330 330 329 327 328 328 328 330 330 330 331 331 332 331 332 333 333 334 335 334 333 331 331 330 329 330 330 331 330 331 332 333 334 334 334 334 334 337 339 340 341
328 329 330 335 340 341 341 340 340 341 341 340 339 338 338 336 336 336 335 335 335 335 334 334 336 334 334 334 333 333 333 333 332 331 330 331 330 331 331 330 329 330 329 328 329 330 328 328 328 328 328 330 330 331 331 331 331 331 332 332 333 334 333 332 330 330 329 328 330 330 328 329 330 331 332 333 334 334 335 338 340 340 341 341 341
329 332 332 337 340 340 340 340 340 341 340 340 339 338 338 336 336 335 335 335 335 335 335 335 334 334 334 334 334 333 332 332 332 331 331 331 330 331 330 330 329 329 328 327 330 329 329 328 328 328 329 328 331 332 332 331 330 331 332 333 334 333 331 330 329 329 328 329 330 329 328 329 330 331 332 332 334 335 337 339 341 341 342 342 340
328 330 332 338 341 339 340 340 340 341 340 339 339 338 337 336 336 335 334 334 335 334 334 334 333 334 334 333 334 333 333 332 331 331 331 331 331 331 330 330 329 328 328 327 329 330 328 327 328 328 329 329 331 332 330 330 330 331 332 333 332 331 330 329 328 327 328 329 329 328 329 329 329 329 330 331 333 337 339 339 341 341 341 339 340
326 329 331 338 341 339 340 340 340 341 340 340 339 338 336 336 336 335 334 334 334 334 333 333 333 333 334 333 333 333 333 331 331 330 331 331 331 330 330 329 328 328 328 328 329 329 328 327 328 328 329 330 331 331 329 331 330 331 332 332 330 329 328 327 327 327 328 329 329 329 329 324 326 329 330 331 334 338 340 338 340 338 338 339 339
327 328 330 336 341 338 340 340 340 341 340 339 339 337 336 336 336 335 334 334 335 334 334 333 333 332 332 333 332 333 332 331 331 330 331 331 331 330 330 329 328 328 328 327 328 329 328 327 327 328 329 330 331 329 330 330 331 332 331 330 329 328 327 326 325 329 328 328 328 328 328 324 327 330 329 332 336 340 340 340 339 339 339 339 338
327 329 330 335 336 337 339 340 340 340 340 339 338 337 337 336 336 335 334 334 334 333 333 333 333 332 332 333 333 333 332 331 330 330 331 331 331 330 330 330 329 328 327 328 326 328 328 327 327 328 329 331 329 328 329 331 331 330 329 328 327 326 325 324 326 327 327 327 327 327 328 329 329 330 329 334 338 341 342 343 342 339 340 338 338
328 329 331 335 339 337 338 339 340 340 339 340 338 337 336 336 335 335 334 333 333 333 333 333 333 332 333 332 333 333 332 331 331 330 330 330 331 330 330 329 329 328 327 327 327 327 327 326 327 327 329 330 329 329 330 330 330 329 327 326 326 325 324 324 327 326 326 327 327 327 329 329 329 327 330 335 339 341 343 343 340 341 339 338 337
328 329 331 333 338 334 337 338 339 340 340 340 339 338 336 335 336 335 334 333 333 333 333 334 333 332 332 332 332 332 331 331 329 329 329 330 330 330 329 329 328 328 327 326 327 327 327 327 327 326 328 329 329 329 329 328 328 327 325 325 325 324 323 324 325 326 326 326 326 327 327 328 328 327 332 336 339 341 341 342 342 341 338 337 337
328 331 331 333 337 337 334 336 337 338 339 339 340 339 337 335 335 335 334 334 333 333 333 332 332 332 332 332 331 331 331 330 329 329 330 329 329 329 329 328 328 327 326 325 325 326 327 327 326 327 329 329 329 329 329 328 327 325 324 324 323 323 321 325 326 326 325 325 326 326 327 327 325 329 333 337 339 341 342 343 343 338 337 337 336
331 331 332 332 336 338 337 334 336 336 337 338 338 339 338 337 336 335 334 334 333 333 333 332 332 332 332 332 331 331 331 330 329 329 330 329 328 328 328 328 327 326 325 323 323 325 326 327 326 328 328 328 329 329 328 327 325 324 324 323 322 321 320 319 324 325 324 325 325 325 326 327 326 330 333 337 340 341 340 339 339 337 337 337 336
329 330 331 332 335 337 337 338 337 335 335 335 336 337 338 337 337 336 335 334 333 333 333 332 332 331 331 331 331 331 330 330 329 330 329 328 328 327 327 327 325 325 323 321 322 323 325 326 326 327 327 327 329 328 327 326 324 323 323 322 321 320 319 318 324 324 324 324 324 325 326 326 326 331 334 337 340 339 340 342 340 337 337 336 335
328 329 330 332 333 336 337 338 338 338 338 336 334 334 337 336 336 336 335 335 334 334 333 333 332 332 332 331 331 331 331 330 330 330 329 328 326 326 326 326 324 323 321 321 321 322 323 325 326 326 326 327 329 327 326 324 322 322 322 321 320 319 318 318 324 324 324 323 324 325 326 324 327 331 334 337 340 341 341 340 339 337 336 335 335
326 326 328 331 331 334 335 337 338 338 338 338 338 338 334 335 334 334 334 334 334 333 333 332 332 331 331 330 330 330 331 331 331 330 329 327 326 325 324 324 323 321 320 320 322 322 322 323 325 326 326 326 328 326 324 322 322 322 321 320 319 318 317 320 324 324 324 324 324 324 325 324 328 331 334 337 339 340 340 340 340 337 336 335 335
325 326 327 330 331 332 333 334 336 337 337 338 338 338 335 333 333 333 332 332 332 332 331 330 329 328 328 328 328 330 330 329 330 329 329 327 326 325 324 324 322 320 320 321 322 322 322 322 324 326 326 326 327 325 322 322 321 321 320 318 318 317 323 323 324 324 324 323 322 324 323 324 328 331 334 337 339 338 341 339 339 337 336 334 334
322 325 326 328 331 331 332 333 334 336 337 337 338 338 336 332 332 331 330 330 331 330 329 328 327 326 326 325 327 329 328 328 328 327 329 328 324 323 325 323 321 320 320 321 321 321 320 320 322 325 326 328 325 323 322 321 321 319 318 317 317 322 323 323 324 323 323 324 323 324 322 324 327 331 334 337 340 342 338 340 339 336 336 334 334
322 323 325 327 328 329 331 332 334 335 336 336 337 336 337 335 337 337 336 334 331 329 332 332 328 332 325 328 329 327 327 328 328 326 327 326 325 322 323 323 321 320 319 319 319 319 319 319 321 324 326 326 322 325 323 319 319 319 317 316 321 323 323 323 323 323 323 324 322 323 321 323 327 331 334 337 339 341 338 340 339 337 336 334 333
320 321 323 325 327 328 329 330 332 334 335 336 336 336 335 335 336 334 335 332 332 333 333 332 332 331 331 330 328 329 328 328 328 327 327 323 324 322 321 321 321 320 319 319 319 318 319 320 322 325 325 322 324 325 325 325 324 318 317 322 322 322 322 323 323 322 323 322 323 320 319 322 327 331 334 337 339 340 339 340 339 336 336 334 333
320 320 322 325 325 326 328 329 330 332 333 333 334 333 334 335 335 335 334 334 333 333 332 332 331 332 331 330 329 329 329 327 325 322 324 327 325 320 320 320 320 320 319 319 319 320 318 317 316 320 320 323 325 324 323 323 323 323 323 321 321 322 322 322 322 322 322 323 323 317 318 322 326 330 333 336 338 339 337 338 339 337 335 334 333
320 321 321 323 323 325 327 328 330 331 331 331 332 332 333 334 334 334 334 333 333 333 332 332 332 331 331 330 330 329 329 327 327 326 324 324 324 324 323 323 323 319 319 317 319 320 316 314 314 315 321 323 323 324 324 323 322 322 322 321 321 322 322 321 321 321 323 323 323 316 319 322 326 330 333 335 337 338 337 338 338 337 335 335 333
318 315 317 319 321 324 326 328 329 330 331 331 331 331 331 331 332 333 333 333 333 332 331 332 331 331 331 331 329 328 327 326 325 324 324 324 324 323 323 323 322 318 318 315 315 315 314 313 313 315 318 321 323 324 323 321 322 321 321 321 320 321 321 320 321 321 323 323 321 316 318 321 324 328 332 334 336 336 338 337 336 336 336 335 334
316 315 317 319 321 322 325 327 327 329 330 331 332 331 330 330 331 331 331 331 332 331 330 331 331 331 330 331 329 327 326 325 324 323 323 323 322 323 323 322 320 315 313 312 314 315 313 312 312 315 320 321 323 323 322 321 321 320 321 321 320 321 320 320 321 321 322 322 321 317 317 320 322 326 329 333 335 337 337 336 336 337 336 335 335
315 316 317 318 320 320 323 326 326 328 329 330 331 330 330 330 330 329 330 330 330 330 330 330 331 330 330 330 328 328 326 324 324 323 322 323 322 323 323 321 319 315 313 313 314 313 312 312 314 318 320 321 322 322 321 320 320 320 320 320 320 320 320 320 321 322 322 322 322 318 316 318 321 324 328 331 333 336 338 338 336 337 336 337 335
313 314 315 317 320 320 322 324 325 326 328 329 329 329 328 329 329 328 328 327 329 329 330 331 330 329 329 329 329 327 327 326 324 323 323 322 322 323 322 321 319 315 313 312 314 314 313 312 314 317 319 321 321 321 320 320 320 320 319 319 319 320 320 320 321 320 321 321 321 320 316 317 320 323 326 328 331 334 336 338 336 337 336 337 336
313 314 315 317 318 319 319 320 323 325 326 327 327 328 328 327 328 327 328 328 328 329 331 329 328 329 329 328 328 328 327 325 325 323 322 322 322 322 322 321 319 316 312 311 313 313 312 313 314 317 319 321 321 321 319 319 319 319 318 318 319 319 320 319 320 320 321 321 320 321 317 317 319 321 324 326 328 331 335 336 337 337 336 337 337
313 313 314 316 318 318 317 318 321 324 325 325 326 326 327 327 327 327 328 327 328 329 329 328 328 328 328 328 328 328 327 327 325 324 323 323 322 322 321 320 319 316 312 311 314 314 313 313 315 316 319 320 320 320 319 319 319 318 318 318 318 319 319 319 319 320 320 320 321 321 321 317 317 319 321 324 326 329 332 333 335 337 338 336 337
312 313 314 316 317 317 317 318 320 322 323 324 325 324 325 327 328 327 327 327 328 328 327 327 327 327 328 328 327 327 327 326 326 325 324 322 321 321 320 319 318 316 313 312 314 314 313 314 316 318 320 321 320 320 319 318 318 318 318 318 318 318 318 319 318 319 319 320 320 321 322 320 318 317 319 321 323 326 329 332 333 336 337 337 337
313 314 315 316 316 317 316 317 319 321 321 321 322 323 325 327 327 327 327 328 328 327 327 326 326 326 326 327 327 327 327 326 325 325 323 322 321 320 320 319 318 317 313 313 315 315 313 314 315 317 318 319 318 318 318 318 317 317 317 317 317 318 319 318 319 319 318 319 319 320 320 321 321 319 319 318 320 323 327 330 331 334 336 337 337
311 313 314 316 317 320 320 319 318 318 319 320 321 322 324 325 326 327 327 328 327 326 326 326 326 325 325 326 325 325 325 326 325 325 323 322 321 320 319 318 318 317 314 313 313 313 312 312 314 314 315 316 316 317 316 316 316 316 316 317 317 317 318 318 318 318 317 318 319 320 320 321 319 321 320 319 319 321 324 327 329 331 334 336 335
310 311 313 315 315 316 318 317 316 316 318 318 320 321 323 324 325 325 326 327 326 326 326 326 326 325 324 323 324 324 325 325 325 324 322 322 320 319 319 318 318 317 314 312 312 312 312 313 313 313 315 315 316 317 316 316 316 315 316 316 316 317 318 318 317 318 317 317 318 319 320 320 319 320 319 321 320 320 321 323 326 328 330 332 336
308 310 312 315 314 314 316 314 314 314 316 317 320 321 322 324 324 322 325 327 325 325 325 325 326 325 323 322 323 323 324 324 324 324 322 321 320 319 318 318 318 316 314 312 312 312 312 313 313 314 314 314 315 315 315 316 316 315 315 315 316 315 316 316 316 317 318 317 318 319 319 320 318 317 316 320 320 321 319 320 322 325 326 327 332
308 309 310 312 313 313 312 313 313 313 315 316 318 320 321 322 323 323 324 325 324 324 324 325 325 324 322 321 321 321 322 323 323 322 322 321 320 319 318 318 317 315 314 312 311 312 312 313 313 313 314 313 314 315 314 315 315 315 315 315 315 315 316 316 315 316 317 317 317 318 318 319 316 313 319 319 320 321 320 318 321 323 322 323 327
309 309 310 310 310 311 312 312 313 313 313 314 316 318 319 320 321 322 322 323 324 324 324 325 324 323 321 320 320 320 320 322 322 321 321 321 320 319 319 317 316 315 313 312 311 312 313 312 312 313 313 313 312 313 314 314 315 315 314 314 314 314 315 315 315 312 315 315 316 317 317 318 318 318 318 318 319 319 321 321 320 322 321 320 324
308 308 309 309 309 310 311 311 311 312 312 313 316 317 318 319 320 320 321 321 322 323 323 323 323 322 321 320 320 319 319 320 320 320 320 320 319 319 318 317 316 315 313 312 311 313 313 312 312 312 314 313 312 314 314 315 315 314 314 313 313 313 314 314 314 314 313 315 314 314 318 318 317 316 317 318 319 319 320 322 323 325 327 319 321
306 306 306 307 308 308 308 309 309 310 310 312 314 314 315 315 315 317 317 318 320 320 321 321 321 320 320 319 319 318 318 319 319 319 319 319 318 318 318 317 315 315 313 311 310 311 312 312 312 313 312 312 313 314 315 314 314 313 312 313 313 313 313 313 314 314 314 313 314 314 316 317 318 317 316 318 319 319 319 320 320 323 325 323 319
305 305 305 305 305 305 306 306 308 309 308 309 310 311 312 313 314 314 314 316 317 318 319 319 319 319 319 319 318 318 318 318 318 319 318 317 318 318 317 316 315 314 313 311 311 312 313 313 312 313 312 311 311 313 314 315 313 311 313 312 313 313 312 312 312 313 313 314 312 314 315 317 318 319 316 316 317 318 319 319 320 322 323 325 326
303 302 302 303 304 305 304 305 307 307 307 308 309 311 313 313 313 313 314 315 315 315 316 317 317 318 318 318 318 318 318 318 317 318 317 317 317 316 316 315 314 314 314 313 312 312 313 312 313 311 312 311 310 312 313 313 310 308 309 310 309 309 308 309 309 310 312 313 313 313 313 315 316 316 316 317 317 317 318 319 320 320 321 322 324
305 304 303 303 304 304 304 305 306 307 307 308 309 310 312 314 314 314 314 314 316 316 317 317 317 317 318 317 318 318 318 318 318 317 317 317 317 316 315 315 314 314 313 311 311 311 312 312 313 309 309 312 312 313 312 312 309 310 310 304 304 305 306 305 307 308 309 312 312 313 312 312 313 315 314 314 317 316 315 318 319 320 319 319 322
305 304 304 304 303 303 303 304 305 307 308 309 309 311 313 314 314 314 315 315 313 314 316 316 316 316 316 317 317 317 318 317 318 317 316 317 317 316 316 315 314 314 313 311 310 310 311 312 312 310 311 308 310 309 312 312 311 308 303 304 305 303 301 305 305 306 306 308 310 311 311 311 312 314 315 315 314 313 315 318 318 319 317 318 320
306 306 306 304 303 303 303 304 305 306 308 309 309 311 311 311 310 312 313 311 311 312 312 311 313 313 314 314 314 316 316 316 316 316 315 316 316 316 315 315 314 313 314 312 310 310 312 312 312 311 311 309 308 310 309 310 310 310 308 303 301 300 302 304 305 303 305 305 307 309 311 310 310 313 314 313 313 313 314 317 319 319 317 317 319
306 307 307 306 304 303 303 304 306 307 307 309 309 309 308 308 307 307 306 307 307 308 308 308 310 311 311 314 314 315 316 316 316 316 315 315 315 315 315 314 314 312 313 312 311 310 311 312 312 312 311 310 310 310 308 308 310 309 308 306 306 306 304 305 305 302 303 306 308 308 309 309 310 312 314 315 314 315 314 313 315 318 317 315 315
308 308 305 304 303 304 304 304 305 306 308 308 309 308 308 308 308 308 309 309 308 309 311 312 312 312 313 313 314 315 315 315 315 316 315 314 315 315 315 314 313 313 312 312 310 310 311 312 313 312 312 311 311 308 309 307 307 307 307 307 307 306 306 304 303 303 302 304 305 305 306 308 309 310 312 314 315 315 316 315 314 317 317 314 314
309 306 306 305 303 303 304 305 306 306 308 308 308 308 308 308 308 309 310 310 310 311 311 312 313 313 313 313 313 313 314 314 314 315 314 314 314 314 314 314 312 312 311 311 310 310 311 313 313 313 313 312 311 308 309 309 305 307 307 305 305 306 307 306 306 305 304 302 303 305 305 306 306 308 310 312 312 314 315 316 316 317 318 315 314
307 307 306 306 306 305 305 306 306 307 307 307 307 308 308 309 309 309 309 310 311 311 311 311 311 311 312 312 312 312 312 313 314 314 314 314 313 314 313 312 311 311 310 311 311 310 310 311 311 312 312 311 310 310 310 309 308 309 306 305 306 306 305 306 305 306 303 302 304 304 305 307 307 307 307 308 309 311 312 314 314 314 316 317 314
306 305 304 305 306 305 305 305 306 306 307 307 307 308 309 309 308 309 308 309 309 309 309 308 309 310 310 310 311 311 311 311 312 312 313 313 313 313 312 312 311 311 309 311 311 310 310 311 311 312 312 311 311 310 309 310 309 310 309 308 306 305 305 304 304 304 304 304 302 304 305 304 304 306 307 307 308 308 310 311 313 315 316 318 319
305 305 305 305 306 305 305 305 306 306 306 307 307 307 308 308 308 309 309 309 308 308 307 307 308 308 309 309 310 310 311 311 311 311 312 312 312 312 311 311 311 311 309 310 310 309 309 310 311 312 312 311 311 311 310 310 309 309 309 309 308 307 306 305 305 305 305 304 302 302 304 304 304 304 307 306 307 308 308 309 310 313 316 319 320
Wind_Speed
10 6 9 18 19 19 19 19 19 19 18 18 18 17 17 16 16 15 15 14 15 15 13 13 12 12 12 11 11 11 10 10 9 9 9 8 7 7 7 5 5 5 5 4 3 1 3 4 2 1 4 4 3 6 5 5 6 6 7 6 7 7 8 9 9 9 10 12 12 13 13 14 13 13 14 14 15 14 15 15 15 12 12 12 14
13 9 10 15 19 19 19 19 18 18 18 18 17 17 16 16 15 15 15 15 14 14 14 13 13 12 12 12 11 11 10 10 9 9 9 9 8 8 7 6 6 6 4 4 1 2 4 2 2 4 4 4 4 4 5 6 7 7 7 7 7 8 8 9 9 10 11 11 12 13 13 13 13 13 13 14 14 14 15 15 15 12 10 14 17
5 10 10 14 17 19 19 19 18 18 18 17 17 17 16 15 15 15 14 15 15 14 14 13 13 13 12 12 11 11 11 10 10 10 9 9 9 8 7 7 7 6 5 2 2 4 5 2 2 5 3 4 5 5 6 7 7 7 7 6 7 8 9 9 10 11 11 11 12 13 15 13 12 12 12 13 14 14 15 15 15 15 11 18 19
7 10 10 13 16 18 19 19 18 18 18 17 17 16 16 15 15 15 15 15 14 14 14 13 13 13 12 11 11 11 11 11 11 11 10 9 9 9 8 7 7 6 5 3 5 5 4 1 2 5 2 3 4 5 6 7 6 6 6 7 8 9 9 10 10 11 12 12 13 13 9 8 8 10 11 12 13 15 15 16 16 16 18 19 20
7 10 11 12 16 17 19 19 19 18 18 17 17 16 16 16 15 15 15 15 14 14 14 13 14 13 12 12 12 11 11 11 11 10 10 10 9 8 8 8 7 6 5 5 6 5 2 1 3 3 3 4 4 5 6 6 6 6 6 8 9 9 10 11 10 11 12 12 13 12 7 8 8 10 11 12 13 16 16 16 17 17 18 19 21
8 8 11 12 14 16 19 19 18 18 18 17 17 16 16 15 15 15 15 15 15 14 14 14 14 13 13 12 12 12 11 11 10 10 9 8 8 8 7 6 6 5 5 6 6 4 3 2 5 2 2 4 5 5 5 6 6 6 7 8 9 10 9 10 11 11 11 13 13 6 7 7 8 7 11 12 14 16 16 16 16 18 19 20 20
8 7 10 12 11 14 18 19 18 18 17 18 17 16 16 15 15 15 15 15 15 15 14 14 13 13 13 12 12 12 11 11 10 9 9 8 7 7 7 7 6 5 5 6 5 4 3 3 2 2 2 4 5 5 6 5 5 7 8 9 9 9 10 11 11 12 12 10 5 6 6 8 8 7 11 12 15 16 17 17 18 19 20 21 21
7 6 10 10 10 14 17 19 19 18 18 17 17 17 16 16 15 15 15 15 15 15 14 14 14 13 12 12 12 12 11 10 9 9 9 8 8 7 7 6 5 5 5 5 5 4 4 1 3 2 3 4 6 5 5 5 6 8 9 8 8 10 10 11 11 12 12 6 5 6 6 8 9 7 9 12 16 17 17 20 21 21 22 21 18
7 8 9 10 10 16 17 18 19 19 18 18 17 17 17 16 17 16 15 15 15 15 14 14 13 13 13 12 12 12 11 10 9 9 8 8 8 8 8 7 6 6 5 6 5 5 3 2 3 2 3 4 5 5 4 6 7 8 8 8 9 10 11 11 12 13 7 5 6 6 7 7 8 8 8 13 17 19 20 19 18 20 21 18 15
7 9 9 9 9 15 18 18 19 19 18 18 18 18 17 17 17 16 16 15 16 16 15 14 14 14 14 13 12 12 11 10 9 9 9 9 9 8 8 7 7 6 6 5 6 5 4 3 3 3 4 4 4 4 4 6 7 7 7 8 9 10 11 12 13 9 5 5 7 7 6 7 8 7 8 16 18 21 21 21 16 17 17 16 14
9 9 8 8 9 14 17 18 19 19 19 18 18 18 17 18 17 16 16 16 16 16 15 14 14 14 14 13 12 12 11 10 10 9 9 9 9 8 8 7 7 6 6 6 5 5 4 3 4 3 4 4 4 4 5 6 6 7 8 9 9 10 11 12 12 5 5 7 7 6 7 8 7 6 12 18 19 22 23 22 21 18 18 15 13
8 9 9 7 8 13 15 16 18 19 18 18 18 18 17 18 17 16 16 16 17 16 15 15 14 14 14 14 13 12 11 10 9 9 10 10 9 9 8 8 7 7 6 6 6 5 6 4 4 5 5 4 4 4 5 5 6 8 9 9 10 10 11 12 7 5 6 7 7 6 7 7 7 7 17 19 22 23 24 23 23 22 18 14 14
8 9 9 8 10 13 13 15 15 17 18 18 18 18 17 17 17 17 16 16 16 16 15 15 15 15 14 14 13 12 12 11 10 10 10 10 10 9 9 8 7 7 7 6 6 6 5 5 6 4 4 5 3 4 3 4 6 7 8 9 9 10 10 12 6 6 6 6 6 6 7 7 6 12 18 22 23 24 24 24 22 22 15 14 13
9 9 8 9 9 12 13 14 14 14 16 17 16 17 17 17 18 18 17 17 16 16 16 16 15 15 14 14 13 13 12 11 11 11 11 10 10 9 8 8 7 7 7 7 6 6 6 5 5 5 5 4 4 5 4 4 5 6 7 8 8 9 11 9 6 6 6 6 6 6 7 6 6 15 21 23 24 25 23 22 22 21 14 13 13
9 10 9 8 9 11 13 13 13 13 13 16 14 15 17 17 17 17 17 17 16 16 16 16 15 15 14 14 14 13 12 11 11 10 9 10 9 9 9 8 8 7 7 6 6 6 6 6 5 5 6 5 5 5 7 5 3 5 6 7 8 9 10 7 6 5 6 5 5 6 6 6 9 17 23 24 24 24 23 22 22 17 13 12 13
6 9 9 8 9 10 12 12 13 13 12 14 14 13 15 16 16 17 17 17 16 16 16 16 16 15 15 14 14 13 13 12 11 11 8 8 9 8 8 8 8 8 7 6 6 6 6 5 6 6 6 5 5 6 4 4 4 5 6 6 7 8 8 8 6 5 5 4 5 6 6 6 12 20 23 24 24 23 22 22 20 16 12 12 11
5 7 9 9 9 9 11 12 13 12 12 11 13 12 14 15 15 15 16 16 17 17 16 16 15 15 15 14 14 14 13 12 12 10 8 7 6 7 8 9 8 7 7 6 6 6 6 6 7 7 6 5 5 4 1 3 3 4 5 6 7 7 7 9 5 5 5 5 5 5 6 5 15 21 23 24 24 21 21 21 19 15 12 11 11
5 7 9 9 10 9 9 10 13 13 13 11 11 11 12 14 14 14 14 14 14 14 15 14 14 14 12 12 12 11 11 12 11 9 8 8 8 8 9 9 8 8 7 7 6 6 6 6 7 7 5 5 6 3 1 2 3 3 4 5 6 7 8 9 5 5 5 5 5 5 5 10 20 20 23 24 24 23 22 21 19 15 12 11 11
5 7 8 9 10 10 10 9 11 12 13 12 12 12 12 13 14 14 14 14 14 13 13 13 12 12 11 11 10 9 9 9 9 8 9 10 10 10 11 9 9 8 8 7 7 7 6 6 6 6 5 5 3 3 2 2 2 3 4 5 7 8 10 8 4 5 5 4 4 5 5 16 19 20 22 24 23 22 21 21 18 15 10 11 11
4 6 8 8 8 10 10 9 10 12 12 11 11 13 13 12 13 14 14 14 13 13 13 12 12 11 10 10 9 8 9 9 8 9 9 10 11 10 11 9 9 8 7 7 7 6 6 6 6 6 6 4 3 3 3 2 2 2 3 5 6 11 5 4 5 5 4 4 5 5 9 18 19 19 21 24 22 21 20 19 18 15 11 11 11
4 6 7 7 8 9 11 9 11 12 12 11 10 11 12 12 11 12 14 14 13 12 12 11 10 10 10 9 9 10 10 10 10 11 11 10 10 9 8 9 8 7 7 7 6 6 5 6 6 6 7 4 4 4 2 2 1 1 3 4 9 6 4 4 5 4 4 4 5 5 15 17 19 19 20 22 22 21 20 21 18 15 12 12 10
6 6 7 7 8 9 11 11 9 13 12 10 8 9 10 11 16 13 12 12 12 12 11 12 12 11 11 10 10 10 9 9 9 11 10 11 10 10 8 7 8 7 7 7 6 6 6 6 6 7 5 5 5 4 4 4 3 1 2 6 6 3 4 5 4 4 4 4 6 8 16 17 17 18 20 22 22 22 20 22 19 15 12 11 9
5 6 6 10 9 8 9 11 10 11 12 11 8 8 11 12 14 14 12 14 14 13 14 13 12 12 11 11 10 9 10 8 8 8 8 8 8 11 9 8 8 7 7 7 6 6 5 4 3 1 4 4 4 4 3 2 2 6 6 4 3 3 4 4 4 4 4 5 6 11 15 16 17 18 19 21 21 21 21 20 19 16 12 10 8
7 6 6 7 8 8 10 10 11 11 11 10 9 9 9 10 11 11 11 12 14 13 15 13 12 13 11 10 10 9 9 8 8 5 4 6 7 9 9 8 7 7 6 6 6 4 3 3 1 1 3 4 4 4 3 3 2 2 2 3 3 3 4 4 3 4 4 4 6 11 15 16 17 17 18 20 21 21 21 21 19 16 12 10 7
4 4 4 6 10 10 9 10 10 10 12 9 10 10 10 9 10 10 11 11 11 12 12 13 12 13 12 10 10 9 9 8 8 8 10 9 8 9 8 8 7 7 8 6 5 5 5 5 4 5 5 4 4 4 3 3 2 2 2 3 3 3 3 3 3 3 3 5 6 10 15 16 17 17 18 19 20 20 20 21 19 17 11 8 8
1 4 7 7 10 11 11 9 10 11 12 10 10 9 10 10 10 11 11 10 11 12 12 11 12 13 12 11 10 9 10 9 8 9 9 9 8 7 7 7 7 6 6 6 5 5 4 5 4 5 5 4 4 3 3 3 2 2 2 3 3 3 3 3 3 3 4 4 5 9 15 15 16 17 18 18 19 20 20 20 19 17 13 8 7
7 9 8 7 8 10 11 11 11 11 13 12 9 9 10 10 10 11 11 11 11 12 12 11 11 12 14 12 10 10 10 9 9 10 10 9 9 8 7 7 6 6 6 6 6 5 5 4 4 5 4 4 4 3 3 2 2 2 3 2 3 3 3 3 3 4 4 4 4 11 15 15 16 17 18 18 19 20 20 20 20 18 14 9 7
9 10 11 10 8 11 12 13 12 12 12 12 11 10 10 10 10 10 11 12 11 11 11 11 11 11 13 12 12 10 10 10 9 10 10 9 9 8 7 7 6 6 6 6 5 5 5 4 4 4 4 4 4 4 3 3 2 2 3 2 3 3 3 3 3 4 4 4 5 9 13 15 16 17 18 18 19 20 21 21 20 16 16 15 8
11 13 13 11 10 10 11 13 12 13 11 11 11 9 9 10 10 10 12 12 11 11 11 10 11 11 13 15 12 11 10 10 10 9 9 10 9 9 7 7 6 6 6 6 5 5 5 5 5 5 5 5 4 4 4 3 3 2 2 2 3 3 3 3 3 3 4 4 4 7 12 12 14 16 18 18 19 19 20 22 21 19 15 14 11
14 15 14 11 11 10 12 14 14 13 12 10 10 9 10 10 11 11 10 11 13 13 12 10 10 10 11 14 14 12 11 10 10 9 10 10 10 9 8 7 7 6 6 6 6 5 5 5 5 5 5 5 4 4 3 3 3 2 2 2 2 3 2 2 3 3 4 4 3 6 8 11 13 16 17 19 18 19 20 20 22 20 18 15 13
13 16 14 12 10 10 12 14 14 12 10 11 10 10 10 11 11 10 10 11 12 11 11 11 10 11 10 12 14 14 11 10 10 10 9 9 9 8 8 7 7 7 6 6 5 6 5 5 5 5 5 5 5 4 4 3 3 3 2 3 2 3 2 2 2 3 3 4 4 5 7 9 10 14 16 18 18 19 20 20 21 22 21 17 15
14 15 13 13 10 12 15 13 12 11 12 12 10 10 11 11 11 10 11 11 11 10 10 11 11 11 12 11 12 13 12 11 11 10 10 9 9 9 8 8 8 7 6 6 6 5 5 5 5 5 5 4 4 4 4 4 3 3 2 2 2 3 2 2 2 2 3 4 4 4 6 8 8 11 14 15 18 18 19 20 20 21 22 19 15
12 15 15 12 13 13 12 12 11 11 14 14 11 10 10 11 11 11 10 10 11 10 10 10 10 11 12 12 11 13 12 11 11 11 10 9 9 8 8 8 8 7 6 7 6 5 5 5 5 4 5 4 4 4 3 4 4 3 3 2 3 2 2 2 2 2 3 3 4 4 5 6 7 9 12 13 15 17 19 20 20 21 21 22 18
13 12 13 13 11 6 6 6 10 13 14 12 10 10 11 10 10 10 10 10 10 10 10 9 10 10 12 13 12 13 13 11 10 11 10 9 9 9 9 8 8 7 6 6 6 6 6 6 6 6 5 6 5 5 4 5 4 3 3 2 3 2 2 2 2 2 2 3 3 4 4 6 6 6 9 11 12 14 18 19 20 21 21 21 20
12 13 14 14 12 9 6 6 8 12 12 12 12 11 10 10 10 10 10 10 10 10 9 9 10 10 10 12 14 12 13 12 11 10 10 10 9 9 9 8 8 7 6 6 7 6 6 7 6 7 6 6 5 5 5 4 4 3 3 3 3 2 3 2 2 2 2 2 3 4 4 5 6 6 7 8 10 11 14 17 18 20 21 20 22
17 16 14 11 12 11 8 9 10 12 12 12 11 12 11 11 10 10 9 11 10 10 9 10 9 9 10 11 13 14 12 13 13 10 10 10 9 9 9 8 9 7 7 7 7 7 7 6 7 7 6 6 5 5 4 5 4 4 3 3 3 2 3 2 2 2 1 2 2 3 3 5 5 5 6 7 8 9 11 15 16 15 19 19 20
17 17 16 13 12 10 9 11 12 13 11 12 12 12 11 11 11 10 10 10 10 10 9 9 9 9 10 11 12 14 13 12 13 13 9 10 10 9 8 9 8 8 7 7 8 7 7 6 6 7 7 6 6 6 5 5 4 3 3 3 3 3 3 2 2 2 2 2 2 2 3 4 4 5 6 6 7 8 9 11 14 12 15 19 20
16 16 14 11 12 10 10 11 10 10 10 11 12 11 10 10 9 9 9 9 11 9 9 9 9 9 10 11 12 13 12 14 13 13 11 10 10 9 8 9 8 8 7 7 8 8 7 7 7 6 7 6 6 6 6 5 3 3 3 4 4 4 3 3 2 2 2 2 1 2 3 3 4 5 6 6 7 8 8 10 11 12 12 15 19
12 12 10 10 10 10 8 9 10 10 9 9 9 9 9 8 8 9 9 10 9 9 9 9 8 8 10 11 12 12 12 14 14 13 11 9 9 9 8 9 8 8 8 8 8 8 8 8 8 7 5 6 5 5 5 4 4 4 4 5 4 5 4 3 2 2 1 1 1 2 2 2 3 3 5 6 6 7 8 8 8 9 9 13 14
12 9 11 11 12 10 8 7 9 9 8 8 8 8 8 9 9 8 8 10 10 10 10 9 8 8 11 12 12 12 12 13 14 14 12 10 9 9 10 9 9 9 9 9 10 9 10 10 10 8 7 5 3 3 3 4 4 5 5 5 6 5 5 4 3 3 2 1 2 2 1 1 2 3 4 5 6 6 7 8 8 8 8 10 12
9 10 10 11 11 10 8 11 9 9 9 9 9 10 10 9 9 11 12 10 10 10 10 10 10 9 12 12 12 12 12 13 13 14 13 11 10 9 10 9 10 9 9 10 10 10 10 9 8 7 8 7 6 5 4 3 4 5 5 6 6 6 5 5 5 3 3 2 1 1 0 1 2 3 4 4 5 6 6 7 7 8 9 8 9
10 9 10 10 9 10 12 10 8 10 11 11 10 10 10 10 10 10 10 9 10 11 11 10 10 9 12 12 12 12 13 13 13 14 13 12 11 9 10 10 11 10 9 9 10 9 9 9 8 7 7 9 7 7 5 5 5 5 3 2 4 4 3 4 5 4 4 2 2 1 1 1 2 3 3 3 5 5 6 6 7 8 9 8 8
8 9 10 9 10 10 10 9 9 10 10 10 10 10 9 8 8 6 9 7 7 7 7 8 9 10 11 12 13 13 13 13 14 14 13 13 11 10 10 10 11 10 9 10 10 10 10 12 11 9 8 7 6 5 7 8 4 3 2 2 3 4 3 3 4 5 4 3 2 2 1 1 1 2 2 2 4 4 3 5 6 8 7 7 8
7 8 8 10 8 9 9 10 9 10 9 10 10 8 9 8 5 5 6 5 6 6 6 6 7 9 10 11 12 13 14 13 14 14 13 13 11 10 10 10 11 11 10 10 10 11 11 11 11 11 9 8 7 6 6 8 5 4 4 4 0 2 3 4 1 3 2 3 3 2 1 1 1 0 1 2 2 3 3 4 5 6 5 6 7
8 8 8 9 6 10 10 11 9 10 9 10 11 9 8 7 5 5 5 5 4 5 7 7 8 9 9 10 13 13 13 13 13 14 13 12 11 10 10 10 10 11 10 10 10 11 11 11 12 11 11 9 8 6 6 6 7 4 4 2 3 4 2 4 1 3 2 3 4 3 2 2 2 1 1 1 1 1 3 3 4 5 4 5 7
6 6 5 7 7 7 8 9 8 8 9 10 12 10 10 10 10 9 9 8 8 9 11 12 12 13 13 11 13 14 14 13 12 14 14 11 12 12 11 10 10 10 10 10 9 10 11 12 12 11 11 10 8 7 7 6 6 4 3 4 4 3 2 2 3 3 3 1 1 2 3 3 2 2 2 2 0 1 1 2 2 4 3 4 4
5 1 2 4 5 5 7 8 8 7 8 10 12 10 10 10 12 11 10 11 11 9 8 9 9 8 8 10 10 12 12 12 12 12 12 13 12 12 11 10 10 10 10 10 10 11 11 11 10 11 10 10 9 8 8 7 5 5 3 2 1 1 3 2 1 1 4 3 2 2 3 3 3 3 3 3 2 2 1 0 1 2 3 2 4
1 1 2 3 5 5 6 7 6 7 7 9 11 11 11 11 12 11 10 9 8 6 8 7 7 7 8 9 9 9 11 11 11 12 12 13 12 11 10 10 10 10 10 10 10 10 9 9 10 11 9 9 10 8 8 8 9 7 7 5 4 1 0 0 2 2 1 2 5 3 1 1 3 3 3 3 3 3 2 2 1 1 1 2 2
2 2 2 3 3 4 5 6 6 7 7 10 10 11 10 10 11 9 8 7 6 4 6 5 6 6 8 7 8 9 9 11 11 12 13 14 11 10 10 10 9 10 9 9 10 11 12 12 11 11 11 10 9 9 7 8 9 7 7 6 5 4 3 1 1 1 2 3 2 2 4 3 2 1 1 2 2 2 2 2 2 2 0 2 0
1 1 1 2 3 4 5 7 7 6 7 10 10 11 10 9 10 10 10 8 5 4 5 6 6 6 8 8 8 8 8 9 11 13 13 12 10 10 10 11 11 11 10 11 11 11 11 11 12 12 11 11 9 10 9 7 8 6 8 6 7 5 4 4 4 4 2 2 2 2 1 1 2 3 1 1 1 3 4 3 3 3 2 2 1
2 2 3 3 4 4 6 7 7 5 7 9 10 11 10 9 9 9 10 8 7 6 6 7 7 7 8 8 8 8 8 8 9 10 12 14 11 11 10 11 10 10 10 11 11 11 11 10 10 11 11 12 10 10 9 8 7 7 8 7 8 8 7 6 6 6 5 4 3 4 3 2 1 2 3 0 2 3 2 3 4 4 3 2 2
Wind_Direction
211 179 168 168 179 179 182 181 179 178 177 178 176 176 175 175 175 178 176 180 180 181 177 179 179 180 178 177 177 176 173 176 174 175 182 172 177 177 184 175 168 181 201 228 228 175 265 287 348 282 301 5 331 332 327 328 333 340 347 340 322 331 323 337 339 341 336 333 330 325 320 311 304 298 299 302 303 304 305 307 305 303 300 291 296
171 184 173 170 181 179 181 182 181 180 179 179 177 177 177 177 177 177 177 182 180 180 179 181 179 181 179 180 181 178 175 176 176 185 174 175 183 182 185 168 173 191 204 215 216 205 249 298 348 287 328 335 330 328 322 324 343 348 339 333 332 321 336 332 333 331 335 335 329 324 317 304 293 290 296 302 304 305 309 307 305 303 297 296 295
165 165 172 172 181 179 182 182 182 181 181 179 179 178 178 178 177 179 180 181 180 182 183 184 183 183 182 184 181 179 179 179 180 182 175 182 185 184 181 178 182 183 202 193 166 235 256 8 298 274 359 317 313 333 317 339 353 343 333 324 321 329 333 329 326 329 331 334 327 320 306 288 283 288 293 301 305 309 310 308 307 303 292 294 292
161 163 168 169 182 181 182 182 183 182 182 181 179 178 179 179 178 181 183 181 183 184 186 183 186 187 185 186 183 182 184 183 187 182 183 184 187 188 179 182 185 200 194 169 199 233 254 305 251 286 332 306 311 314 331 346 345 336 332 325 324 329 328 323 328 339 336 328 322 314 297 298 300 296 295 299 308 314 314 309 305 300 293 285 284
167 160 167 168 179 183 183 183 183 183 182 181 180 179 182 180 179 182 184 181 187 185 186 186 187 189 189 189 186 187 188 187 187 184 188 188 188 190 186 183 193 192 190 183 202 237 295 269 288 292 331 307 308 324 332 332 331 336 324 322 328 329 331 345 342 338 331 324 315 300 294 301 302 301 298 304 312 319 318 311 305 297 289 284 279
164 158 167 171 178 179 184 184 184 183 182 181 181 180 185 182 183 182 184 185 187 186 187 187 190 187 191 192 191 190 189 190 186 187 189 190 194 194 191 192 191 206 185 190 216 238 209 221 246 292 303 304 310 328 326 335 341 328 319 325 329 344 357 353 347 335 328 320 297 287 302 303 309 304 302 309 316 320 316 309 296 288 286 286 290
160 159 169 174 176 177 182 184 183 183 183 182 182 181 185 186 185 184 185 188 188 190 189 189 194 190 192 194 194 196 192 191 190 188 190 191 196 200 199 195 198 199 207 212 225 243 236 218 265 299 295 297 309 340 331 332 333 318 322 326 341 358 355 349 340 334 327 312 315 318 308 316 314 303 304 311 319 318 314 305 297 295 296 297 296
157 164 174 175 176 171 177 184 184 183 184 183 183 183 184 187 186 187 188 189 190 191 191 192 193 195 196 196 198 198 194 194 193 191 190 194 197 199 201 201 197 207 215 227 237 244 249 258 282 317 287 300 315 335 340 337 325 321 325 339 353 354 350 344 339 331 315 303 319 314 315 314 313 308 306 315 320 317 311 304 298 304 305 305 304
163 174 177 179 177 169 176 183 184 185 182 186 185 185 187 188 188 189 191 191 191 193 195 194 194 197 198 200 201 200 197 196 195 194 196 197 202 202 198 198 203 211 218 226 236 240 253 237 259 265 279 308 321 333 335 321 321 326 337 350 355 351 347 344 336 321 306 317 317 314 312 315 316 307 306 318 320 315 308 306 305 308 308 301 295
167 173 183 180 181 167 177 182 185 185 183 187 188 189 188 190 191 190 192 194 194 194 195 196 197 198 202 201 201 204 200 200 198 196 199 202 203 201 202 205 207 211 216 225 233 242 234 256 249 266 289 306 332 319 319 322 328 340 346 352 353 351 347 340 331 305 311 318 316 309 312 320 305 300 314 322 319 308 306 308 305 304 296 289 279
167 174 183 186 183 171 177 183 187 185 186 189 190 191 191 192 192 192 194 195 196 197 196 195 198 199 203 203 202 203 203 201 198 200 202 204 204 204 205 205 207 210 217 224 231 234 240 239 258 266 277 296 316 313 316 331 346 353 357 356 355 350 345 337 323 315 316 316 314 313 311 299 293 304 323 322 316 304 310 312 313 310 301 284 290
174 175 180 184 172 176 180 187 188 186 188 192 190 193 193 193 193 194 195 196 198 198 199 197 200 201 204 205 204 206 205 203 201 203 206 205 206 206 206 204 207 211 216 222 225 233 234 232 247 264 275 303 300 315 329 359 356 360 360 356 353 347 339 331 314 320 314 312 311 310 307 306 310 317 325 319 311 311 313 314 318 316 312 303 307
176 179 181 178 176 182 186 188 195 190 189 195 192 194 194 195 196 196 197 198 199 199 199 199 200 202 204 206 206 207 205 204 202 206 209 209 206 207 207 207 210 212 217 222 226 232 237 238 242 258 269 291 314 297 350 4 4 4 359 354 350 343 338 322 311 315 314 314 312 310 311 309 313 327 323 318 316 313 313 316 321 318 313 311 312
176 180 181 179 180 178 190 191 198 196 189 197 197 192 196 196 197 199 200 199 200 200 201 201 201 202 205 207 206 209 206 205 205 207 211 211 209 210 209 209 213 214 219 223 229 233 242 253 259 257 265 288 295 290 302 323 358 359 1 355 347 341 337 317 309 307 314 315 313 310 309 311 318 325 321 316 315 314 320 322 325 320 318 317 314
175 179 177 179 180 184 190 196 200 203 195 195 204 195 197 198 200 201 201 201 202 202 202 203 202 203 205 208 208 209 208 206 206 207 209 213 212 212 212 212 213 215 218 225 228 231 238 244 246 255 259 281 286 301 296 332 17 359 6 358 346 341 338 325 315 314 312 315 314 318 310 309 320 324 321 317 317 317 321 327 328 324 326 320 319
177 174 173 180 182 182 188 197 205 206 205 196 204 199 196 197 200 205 202 202 203 204 203 204 205 205 204 208 209 209 209 208 207 208 204 212 212 216 217 214 216 217 220 225 226 229 233 240 244 251 257 275 289 294 340 52 19 8 7 359 346 339 334 326 313 313 311 321 323 312 308 310 325 325 321 316 315 321 330 332 330 327 333 326 319
169 176 178 183 183 185 189 195 201 208 213 208 204 204 196 196 200 202 203 204 205 204 205 206 206 206 206 206 209 210 209 211 211 207 193 199 206 217 220 219 216 218 223 227 229 226 229 230 237 246 253 266 284 301 324 32 28 6 7 357 342 334 325 318 304 311 318 324 312 309 313 322 330 324 321 318 317 329 330 331 328 330 325 323 318
181 186 189 184 184 190 190 194 198 205 209 212 213 210 202 198 199 200 202 202 204 204 206 206 209 206 206 207 209 210 212 211 212 198 186 186 202 217 220 219 218 222 227 230 230 230 228 231 238 241 251 260 273 285 143 54 25 11 6 351 336 323 312 297 305 312 319 309 304 315 306 335 326 325 321 318 321 329 331 332 334 331 331 326 321
185 196 196 189 189 189 192 194 196 201 208 209 210 208 209 203 198 199 199 200 202 201 199 204 207 207 204 205 200 206 212 213 205 193 181 188 199 215 221 223 226 230 230 231 230 230 231 232 236 241 239 247 281 143 103 57 34 17 3 347 323 310 287 274 327 321 311 309 331 315 331 330 326 326 324 321 327 331 331 338 334 332 330 324 322
200 198 199 198 191 192 193 195 198 203 205 209 209 210 205 208 200 198 199 200 201 199 199 200 201 204 203 199 193 196 206 216 197 202 178 186 196 214 215 222 231 236 236 231 232 234 234 231 236 236 233 243 158 131 106 86 33 18 1 333 312 289 279 330 324 318 321 332 325 315 335 330 327 327 326 323 328 332 333 337 340 338 328 327 323
208 208 206 196 197 196 195 195 199 201 204 206 211 210 210 197 203 200 200 200 201 199 198 197 195 194 197 193 186 205 215 219 208 219 191 193 198 201 211 211 225 237 240 239 239 235 236 239 236 236 239 181 133 123 118 115 97 7 352 311 291 275 340 325 330 327 334 328 332 331 333 331 328 330 329 323 330 331 337 339 342 343 335 328 331
198 205 207 201 197 203 202 201 196 198 199 201 206 208 214 201 211 209 204 201 199 198 197 206 200 209 192 197 208 211 215 213 216 211 216 211 198 185 189 206 220 230 238 237 235 234 234 235 235 233 215 151 158 231 182 157 170 11 316 281 270 335 333 330 330 331 336 348 329 342 332 330 331 333 331 327 333 334 340 344 346 342 336 332 328
207 203 201 202 204 202 204 206 204 196 198 201 201 207 212 209 210 214 213 209 210 199 212 209 211 208 202 206 209 212 208 214 214 208 219 203 212 170 183 202 215 227 233 236 230 230 231 231 244 73 127 151 207 238 247 261 200 175 223 241 325 332 332 326 321 340 338 357 328 347 329 332 335 337 335 332 335 337 342 343 348 341 338 331 321
223 207 201 192 201 205 205 209 205 195 195 201 200 203 206 208 205 208 211 215 216 212 215 212 212 209 203 204 207 208 206 214 209 138 176 207 198 168 181 194 211 225 233 231 217 213 219 237 278 146 184 212 237 233 240 244 270 315 319 316 319 337 324 330 340 333 337 349 346 348 330 340 342 339 339 338 338 339 343 350 349 344 341 334 328
213 199 203 196 196 205 204 207 203 200 198 199 199 201 200 203 207 205 207 212 212 212 212 214 212 211 204 205 206 203 206 211 215 212 218 218 216 213 203 214 213 219 190 227 218 196 211 218 207 213 229 221 229 232 246 247 263 281 309 330 320 325 320 328 336 336 335 346 359 346 342 346 346 341 343 342 342 339 348 350 352 345 344 333 322
195 228 226 206 197 203 203 200 197 203 200 200 198 196 195 201 203 205 206 208 211 212 213 211 212 213 206 205 203 204 206 210 213 215 212 216 214 209 204 202 207 213 193 223 218 215 216 218 216 216 218 224 223 230 236 264 275 295 317 338 325 321 322 332 337 334 333 351 356 356 350 350 348 342 343 345 343 342 346 353 354 350 344 341 324
214 228 234 221 198 196 200 198 200 202 204 202 196 192 196 200 202 203 204 207 207 210 213 213 211 208 212 204 202 201 204 206 208 211 214 212 214 212 208 205 206 216 211 216 213 211 220 221 216 216 214 218 222 221 222 233 271 294 305 315 326 316 320 331 337 340 337 341 356 15 352 351 347 344 346 347 348 345 350 354 1 353 349 345 332
238 241 238 229 196 199 197 196 205 199 200 197 198 195 194 195 199 200 205 210 204 207 210 210 210 211 211 206 201 202 203 204 205 206 210 212 215 212 209 205 208 215 216 215 211 212 215 220 214 209 209 214 219 216 217 216 231 263 283 305 318 312 325 326 334 343 345 339 344 14 352 353 348 346 349 350 351 352 351 352 5 360 2 350 346
237 235 242 228 205 201 190 200 205 202 199 192 198 200 193 195 194 196 203 203 206 210 209 202 210 211 213 213 200 202 203 203 203 203 205 211 212 210 208 209 209 215 213 216 213 214 213 214 209 204 208 214 210 212 219 222 246 242 291 299 298 316 313 314 338 347 345 343 351 8 358 341 346 350 353 352 354 354 357 357 357 3 1 355 356
231 236 236 229 222 197 195 205 204 202 197 188 200 197 196 193 195 198 200 197 206 208 203 202 208 209 209 209 209 203 203 202 202 202 204 206 206 207 209 211 212 212 211 217 212 216 213 207 209 205 205 211 217 215 218 223 236 255 268 292 299 301 300 315 330 342 348 347 347 357 8 351 349 354 354 354 355 357 359 3 353 5 3 0 6
230 235 237 234 221 188 205 210 204 193 188 196 198 199 195 199 196 195 195 198 203 202 200 204 205 211 210 202 208 209 203 202 201 199 200 202 204 204 209 209 214 211 209 216 213 212 214 211 207 207 206 210 215 204 221 234 234 237 246 271 295 294 296 312 326 339 345 349 344 359 6 357 345 348 351 356 356 357 1 4 358 360 5 7 4
229 233 234 231 220 205 215 207 198 188 192 203 196 198 200 201 195 194 197 197 196 199 199 200 203 209 212 205 204 209 204 202 200 196 199 201 205 205 204 206 211 209 205 211 210 207 213 212 206 217 215 210 215 207 218 241 238 244 255 260 265 284 298 311 312 335 345 340 342 2 6 356 356 347 346 350 357 357 360 3 3 1 6 11 7
233 234 234 224 218 219 214 208 190 189 200 204 197 200 202 201 197 197 196 189 191 194 197 199 201 207 211 209 203 206 205 201 198 198 193 200 204 201 203 205 208 207 200 203 202 197 206 204 200 202 211 213 211 212 198 238 247 243 251 268 281 273 287 296 302 327 342 334 343 6 6 358 358 357 350 341 348 358 359 3 4 3 3 10 14
240 238 232 224 221 199 193 196 189 200 203 202 197 201 204 203 201 200 196 188 191 192 198 200 201 203 208 209 206 207 208 206 197 196 194 200 204 202 204 205 205 203 193 187 200 204 207 204 199 196 202 208 210 214 211 223 228 231 250 246 269 278 295 282 289 325 325 337 333 8 6 7 360 2 354 342 344 358 0 3 5 4 4 3 18
235 239 236 228 222 210 191 199 190 203 196 202 199 202 200 201 199 198 197 193 193 195 195 198 199 201 203 212 210 206 207 207 200 191 191 199 201 204 204 205 199 194 193 195 200 199 207 204 199 202 197 209 214 209 217 230 226 226 248 260 263 277 265 271 277 278 311 327 322 1 9 13 4 5 356 1 348 357 356 354 360 7 3 4 7
236 238 236 226 225 217 181 203 193 202 198 199 201 202 200 200 200 197 197 192 195 196 196 199 198 196 204 211 208 209 207 208 210 193 192 197 202 203 201 199 192 187 196 190 197 200 203 206 203 205 198 206 207 211 213 230 224 233 238 262 268 265 270 279 278 268 316 303 332 351 14 19 14 5 360 359 355 347 350 352 349 0 9 6 9
233 234 235 229 219 215 195 202 201 199 197 199 202 203 201 201 200 197 198 192 197 198 199 200 197 195 207 209 206 207 207 206 209 208 196 198 201 202 199 192 185 190 189 191 196 203 198 200 201 206 214 209 206 213 212 221 227 220 228 248 257 256 261 271 278 283 267 283 312 339 10 23 22 355 15 2 356 353 350 347 345 357 14 8 13
237 235 231 224 225 218 204 202 203 193 195 195 198 200 201 199 198 197 193 196 200 201 200 198 198 195 206 208 204 202 205 209 207 210 211 202 200 199 195 186 182 187 191 191 198 200 200 199 202 198 209 213 209 211 213 218 215 224 230 238 242 249 257 259 266 280 262 284 283 339 354 21 27 20 14 8 358 357 357 4 359 358 18 9 11
233 226 221 224 227 224 207 200 204 195 192 191 192 193 191 192 194 196 196 201 201 203 200 202 196 192 208 208 202 200 202 207 208 207 208 202 197 196 194 184 184 187 190 191 195 194 196 199 205 189 198 216 223 213 217 210 208 224 240 240 236 242 252 248 261 254 265 244 290 302 310 10 33 30 22 10 6 356 1 9 18 4 6 357 4
234 225 223 221 221 222 208 203 201 193 184 186 180 184 185 189 191 192 200 203 202 202 203 206 195 199 210 205 201 200 200 203 205 208 207 206 201 198 194 182 187 188 191 192 195 192 193 195 204 192 185 194 227 217 203 213 232 242 246 241 234 233 233 236 234 243 245 227 248 270 317 354 30 38 31 17 13 4 6 10 16 12 356 356 356
226 220 217 220 217 213 201 209 193 179 181 182 184 184 188 189 194 198 203 195 197 196 200 203 206 206 210 206 201 200 201 201 204 205 209 206 205 200 191 185 188 191 193 197 195 191 191 193 197 193 187 193 202 204 196 212 238 252 227 234 234 213 220 221 233 231 229 232 234 249 284 323 30 26 36 21 18 17 12 15 13 14 13 10 10
223 203 216 216 208 208 210 205 178 189 193 187 184 190 194 192 186 195 192 188 186 191 196 198 200 201 208 207 203 201 202 202 203 205 208 203 201 199 193 186 187 192 195 194 190 185 180 187 187 187 195 199 205 188 181 187 225 240 248 223 207 178 192 209 224 228 226 225 226 243 269 314 7 23 34 14 21 19 19 18 18 18 17 12 11
233 210 218 215 210 208 212 201 192 189 192 186 182 192 190 189 189 184 182 184 192 196 195 192 188 196 200 205 207 204 204 206 204 203 206 206 201 197 194 186 186 186 186 190 187 187 187 190 188 193 181 199 208 172 183 203 236 196 245 291 232 211 159 193 203 220 213 212 194 208 202 286 21 18 24 5 19 15 14 18 24 22 11 7 5
233 236 221 219 216 212 205 199 196 190 189 189 187 185 179 167 140 123 164 176 176 163 169 168 182 191 198 201 212 211 209 209 206 205 208 208 200 198 194 187 185 186 189 189 188 190 187 190 190 198 187 180 200 189 197 201 227 178 210 224 92 282 199 148 128 123 185 203 202 204 192 230 195 164 58 37 6 353 6 20 23 26 3 2 360
226 226 217 212 205 209 203 196 193 189 189 182 179 166 142 141 133 123 135 116 116 171 185 196 196 200 207 203 211 210 209 209 208 206 208 205 201 199 195 186 182 187 190 192 190 192 187 190 189 193 193 195 186 184 183 198 217 263 302 173 183 213 223 82 165 114 152 177 196 204 178 216 194 180 150 128 304 347 354 20 24 27 8 360 3
230 224 216 211 206 204 197 189 186 181 182 177 178 169 172 169 165 170 175 181 187 184 193 193 190 195 201 197 202 201 201 202 201 202 204 203 203 200 194 184 185 184 190 194 190 185 188 192 190 194 196 204 191 175 176 189 210 224 274 325 347 347 66 120 246 138 127 52 107 182 188 184 180 197 196 187 155 20 20 1 11 32 17 4 348
225 144 187 196 193 193 188 184 184 179 174 172 172 169 174 182 184 188 188 187 186 196 194 192 188 189 186 190 192 194 196 197 199 198 200 202 202 199 190 189 186 185 186 191 191 189 188 192 184 195 198 196 193 190 185 178 181 223 218 281 333 347 346 306 126 140 158 134 148 174 175 176 190 202 201 197 184 225 176 307 360 20 50 4 353
125 171 173 176 182 180 174 177 176 175 167 168 174 180 181 185 187 191 194 197 199 184 179 178 177 171 178 180 179 186 193 201 201 200 198 199 198 192 189 188 186 186 183 192 193 190 186 185 187 194 196 195 196 198 189 174 183 196 192 201 202 198 46 60 350 332 15 141 149 130 84 203 225 214 205 196 198 205 240 232 289 324 78 52 6
209 194 174 160 153 155 166 168 172 169 169 174 176 186 189 187 189 191 197 203 193 155 155 163 169 172 180 177 183 185 190 199 204 204 204 201 193 189 184 185 185 186 186 195 197 191 188 181 182 189 195 197 198 203 195 186 191 191 164 194 200 208 195 180 115 240 221 205 175 159 138 157 197 174 198 198 195 202 224 254 283 295 357 81 27
183 172 134 138 142 151 161 166 167 170 167 175 181 185 189 183 189 196 196 193 180 149 163 169 181 179 189 184 185 185 187 192 201 207 206 202 188 187 185 188 189 189 189 196 194 188 186 186 185 190 193 194 197 200 204 191 192 196 182 176 188 186 198 197 208 193 212 262 260 162 120 32 178 138 157 176 215 205 196 207 227 234 241 194 141
173 180 155 161 155 161 165 171 170 165 166 176 182 184 188 191 195 194 193 186 176 171 173 174 181 180 189 187 189 191 187 191 192 202 206 206 190 191 191 192 191 190 188 192 194 190 189 187 185 189 192 194 196 195 198 201 193 198 192 192 196 193 195 194 192 191 199 181 188 226 200 190 314 295 133 27 292 271 233 193 203 215 219 209 160